Location: Pianadetto
(44.4000°N, 10.1000°E)
Time: 22:18:47
(UTC+00:00)

Thor Agena Rocket - Pass Details

Date: 26 May 2022
Orbit: 759 x 807 km, 99.0° (Epoch: 03 July)

Event Time Altitude Azimuth Distance (km) Brightness Sun altitude
Rises 00:06:48 0° 18° (NNE) 3,323 8.2 -23.5°
Reaches altitude 10° 00:09:11 10° 23° (NNE) 2,392 7.1 -23.4°
Maximum altitude 00:14:23 56° 101° (E) 954 3.9 -23.2°
Enters shadow 00:15:37 45° 148° (SSE) 1,086 3.9 -23.1°
